Hundvaag 1 weather for Feb 1993
Month no. 68
Obs.
Da.
Temp. Dew Point Precip. Wind
Speed
Wind gusts Cloud cover Press. Humidity Wind dir. Sunny OPT
01.02.1993 0,6   0,0             1  
02.02.1993 2,3   0,0             1  
03.02.1993 5,8   0,0                
04.02.1993 6,5   0,0                
05.02.1993 4,0   15,0             1  
06.02.1993 -1,0   3,7             1  
07.02.1993 1,2   0,9                
08.02.1993 3,8   0,0                
09.02.1993 4,2   2,0             1  
10.02.1993 1,5   0,0                
11.02.1993 2,5   0,0                
12.02.1993 3,8   0,2                
13.02.1993 4,0   0,2                
14.02.1993 3,8   0,1                
15.02.1993 2,4   7,4                
16.02.1993 4,9   6,1                
17.02.1993 4,8   22,5             1  
18.02.1993 5,0   1,4                
19.02.1993 0,1   11,4             1  
20.02.1993 4,8   0,1                
21.02.1993 1,1   36,0             1  
22.02.1993 -1,0   0,0             1  
23.02.1993 -0,1   0,0                
24.02.1993 0,2   0,0                
25.02.1993 3,1   0,0                
26.02.1993 2,4   0,0                
27.02.1993 -0,8   1,0                
28.02.1993 1,0   0,0                
                       
                       
                       
Avrg/Sum 2,5   108,1             9